Location: Sagn�
(15.2046°N, 12.7898°W)
Time: 13:37:15
(UTC+00:00)

Ariane Rocket - Pass Details

Date: 08 May 2021
Orbit: 761 x 769 km, 98.7° (Epoch: 14 June)

Event Time Altitude Azimuth Distance (km) Brightness Sun altitude
Exits shadow 21:02:30 35° 37° (NE) 1,205 3.9 -25.7°
Drops below altitude 10° 21:05:54 10° 5° (N) 2,288 5.7 -26.4°
Sets 21:08:17 0° 359° (N) 3,215 6.6 -26.9°
